owner,sensor,date,latitude,longitude,vertical_datum,wind_speed,wind_to_direction,wind_speed_of_gust,qcFlag 
SCCF RECON,ioos:station:SCCF:53:1,2012-03-01T00:00:00Z,26.6493,-81.8810,2.11,4.0,239.7,-9999.0,'1111122,1111122,1111122' 
SCCF RECON,ioos:station:SCCF:53:1,2012-03-01T00:15:00Z,26.6493,-81.8810,2.11,3.9,245.2,-9999.0,'1111122,1111122,1111122' 
SCCF RECON,ioos:station:SCCF:53:1,2012-03-01T00:30:00Z,26.6493,-81.8810,2.11,4.0,233.3,-9999.0,'1111122,1111122,1111122' 
SCCF RECON,ioos:station:SCCF:53:1,2012-03-01T00:45:00Z,26.6493,-81.8810,2.11,3.3,232.7,-9999.0,'1111122,1111122,1111122' 
SCCF RECON,ioos:station:SCCF:53:1,2012-03-01T01:00:00Z,26.6493,-81.8810,2.11,2.1,255.3,-9999.0,'1111122,1111122,1111122' 
SCCF RECON,ioos:station:SCCF:53:1,2012-03-01T01:15:00Z,26.6493,-81.8810,2.11,2.4,257.7,-9999.0,'1111122,1111122,1111122' 
SCCF RECON,ioos:station:SCCF:53:1,2012-03-01T01:30:00Z,26.6493,-81.8810,2.11,1.8,257.7,-9999.0,'1111122,1111122,1111122' 
SCCF RECON,ioos:station:SCCF:53:1,2012-03-01T01:45:00Z,26.6493,-81.8810,2.11,2.7,267.9,-9999.0,'1111122,1111122,1111122' 
SCCF RECON,ioos:station:SCCF:53:1,2012-03-01T02:00:00Z,26.6493,-81.8810,2.11,2.6,261.6,-9999.0,'1111122,1111122,1111122' 
SCCF RECON,ioos:station:SCCF:53:1,2012-03-01T02:15:00Z,26.6493,-81.8810,2.11,2.6,245.9,-9999.0,'1111122,1111122,1111122' 
SCCF RECON,ioos:station:SCCF:53:1,2012-03-01T02:30:00Z,26.6493,-81.8810,2.11,2.4,248.3,-9999.0,'1111122,1111122,1111122' 
SCCF RECON,ioos:station:SCCF:53:1,2012-03-01T02:45:00Z,26.6493,-81.8810,2.11,3.3,251.8,-9999.0,'1111122,1111122,1111122' 
SCCF RECON,ioos:station:SCCF:53:1,2012-03-01T03:00:00Z,26.6493,-81.8810,2.11,2.2,250.3,-9999.0,'1111122,1111122,1111122' 
SCCF RECON,ioos:station:SCCF:53:1,2012-03-01T03:15:00Z,26.6493,-81.8810,2.11,0.9,229.3,-9999.0,'1111122,1111122,1111122' 
SCCF RECON,ioos:station:SCCF:53:1,2012-03-01T03:30:00Z,26.6493,-81.8810,2.11,0.6,241.0,-9999.0,'1111122,1111122,1111122' 
SCCF RECON,ioos:station:SCCF:53:1,2012-03-01T03:45:00Z,26.6493,-81.8810,2.11,1.6,233.9,-9999.0,'1111122,1111122,1111122' 
SCCF RECON,ioos:station:SCCF:53:1,2012-03-01T04:00:00Z,26.6493,-81.8810,2.11,1.1,245.1,-9999.0,'1111122,1111122,1111122' 
SCCF RECON,ioos:station:SCCF:53:1,2012-03-01T04:15:00Z,26.6493,-81.8810,2.11,2.6,226.4,-9999.0,'1111122,1111122,1111122' 
SCCF RECON,ioos:station:SCCF:53:1,2012-03-01T04:30:00Z,26.6493,-81.8810,2.11,3.0,223.6,-9999.0,'1111122,1111122,1111122' 
SCCF RECON,ioos:station:SCCF:53:1,2012-03-01T04:45:00Z,26.6493,-81.8810,2.11,1.6,193.1,-9999.0,'1111122,1111122,1111122' 
SCCF RECON,ioos:station:SCCF:53:1,2012-03-01T05:00:00Z,26.6493,-81.8810,2.11,1.4,199.4,-9999.0,'1111122,1111122,1111122' 
SCCF RECON,ioos:station:SCCF:53:1,2012-03-01T05:15:00Z,26.6493,-81.8810,2.11,1.1,138.7,-9999.0,'1111122,1111122,1111122' 
SCCF RECON,ioos:station:SCCF:53:1,2012-03-01T05:30:00Z,26.6493,-81.8810,2.11,1.6,155.3,-9999.0,'1111122,1111122,1111122' 
SCCF RECON,ioos:station:SCCF:53:1,2012-03-01T05:45:00Z,26.6493,-81.8810,2.11,1.8,101.0,-9999.0,'1111122,1111122,1111122' 
SCCF RECON,ioos:station:SCCF:53:1,2012-03-01T06:00:00Z,26.6493,-81.8810,2.11,1.7,132.5,-9999.0,'1111122,1111122,1111122' 
SCCF RECON,ioos:station:SCCF:53:1,2012-03-01T06:15:00Z,26.6493,-81.8810,2.11,1.8,144.4,-9999.0,'1111122,1111122,1111122' 
SCCF RECON,ioos:station:SCCF:53:1,2012-03-01T06:30:00Z,26.6493,-81.8810,2.11,1.7,124.7,-9999.0,'1111122,1111122,1111122' 
SCCF RECON,ioos:station:SCCF:53:1,2012-03-01T06:45:00Z,26.6493,-81.8810,2.11,1.8,139.4,-9999.0,'1111122,1111122,1111122' 
SCCF RECON,ioos:station:SCCF:53:1,2012-03-01T07:00:00Z,26.6493,-81.8810,2.11,2.0,128.1,-9999.0,'1111122,1111122,1111122' 
SCCF RECON,ioos:station:SCCF:53:1,2012-03-01T07:15:00Z,26.6493,-81.8810,2.11,2.3,107.1,-9999.0,'1111122,1111122,1111122' 
SCCF RECON,ioos:station:SCCF:53:1,2012-03-01T07:30:00Z,26.6493,-81.8810,2.11,2.9,131.9,-9999.0,'1111122,1111122,1111122' 
SCCF RECON,ioos:station:SCCF:53:1,2012-03-01T07:45:00Z,26.6493,-81.8810,2.11,2.1,120.1,-9999.0,'1111122,1111122,1111122' 
SCCF RECON,ioos:station:SCCF:53:1,2012-03-01T08:00:00Z,26.6493,-81.8810,2.11,1.9,126.9,-9999.0,'1111122,1111122,1111122' 
SCCF RECON,ioos:station:SCCF:53:1,2012-03-01T08:15:00Z,26.6493,-81.8810,2.11,1.0,77.9,-9999.0,'1111122,1111122,1111122' 
SCCF RECON,ioos:station:SCCF:53:1,2012-03-01T08:30:00Z,26.6493,-81.8810,2.11,1.5,94.0,-9999.0,'1111122,1111122,1111122' 
SCCF RECON,ioos:station:SCCF:53:1,2012-03-01T08:45:00Z,26.6493,-81.8810,2.11,1.9,93.2,-9999.0,'1111122,1111122,1111122' 
SCCF RECON,ioos:station:SCCF:53:1,2012-03-01T09:00:00Z,26.6493,-81.8810,2.11,2.2,71.2,-9999.0,'1111122,1111122,1111122' 
SCCF RECON,ioos:station:SCCF:53:1,2012-03-01T09:15:00Z,26.6493,-81.8810,2.11,2.5,64.8,-9999.0,'1111122,1111122,1111122' 
SCCF RECON,ioos:station:SCCF:53:1,2012-03-01T09:30:00Z,26.6493,-81.8810,2.11,2.1,93.1,-9999.0,'1111122,1111122,1111122' 
SCCF RECON,ioos:station:SCCF:53:1,2012-03-01T09:45:00Z,26.6493,-81.8810,2.11,1.7,68.4,-9999.0,'1111122,1111122,1111122' 
SCCF RECON,ioos:station:SCCF:53:1,2012-03-01T10:00:00Z,26.6493,-81.8810,2.11,2.0,72.0,-9999.0,'1111122,1111122,1111122' 
SCCF RECON,ioos:station:SCCF:53:1,2012-03-01T10:15:00Z,26.6493,-81.8810,2.11,1.4,78.7,-9999.0,'1111122,1111122,1111122' 
SCCF RECON,ioos:station:SCCF:53:1,2012-03-01T10:30:00Z,26.6493,-81.8810,2.11,1.3,57.8,-9999.0,'1111122,1111122,1111122' 
SCCF RECON,ioos:station:SCCF:53:1,2012-03-01T10:45:00Z,26.6493,-81.8810,2.11,1.0,84.7,-9999.0,'1111122,1111122,1111122' 
SCCF RECON,ioos:station:SCCF:53:1,2012-03-01T11:00:00Z,26.6493,-81.8810,2.11,0.8,116.5,-9999.0,'1111122,1111122,1111122' 
SCCF RECON,ioos:station:SCCF:53:1,2012-03-01T11:15:00Z,26.6493,-81.8810,2.11,0.7,105.5,-9999.0,'1111122,1111122,1111122' 
SCCF RECON,ioos:station:SCCF:53:1,2012-03-01T11:30:00Z,26.6493,-81.8810,2.11,1.3,110.9,-9999.0,'1111122,1111122,1111122' 
SCCF RECON,ioos:station:SCCF:53:1,2012-03-01T11:45:00Z,26.6493,-81.8810,2.11,1.2,116.5,-9999.0,'1111122,1111122,1111122' 
SCCF RECON,ioos:station:SCCF:53:1,2012-03-01T12:00:00Z,26.6493,-81.8810,2.11,1.3,85.2,-9999.0,'1111122,1111122,1111122' 
SCCF RECON,ioos:station:SCCF:53:1,2012-03-01T12:15:00Z,26.6493,-81.8810,2.11,2.4,58.3,-9999.0,'1111122,1111122,1111122' 
SCCF RECON,ioos:station:SCCF:53:1,2012-03-01T12:30:00Z,26.6493,-81.8810,2.11,2.2,73.8,-9999.0,'1111122,1111122,1111122' 
SCCF RECON,ioos:station:SCCF:53:1,2012-03-01T12:45:00Z,26.6493,-81.8810,2.11,1.1,63.4,-9999.0,'1111122,1111122,1111122' 
SCCF RECON,ioos:station:SCCF:53:1,2012-03-01T13:00:00Z,26.6493,-81.8810,2.11,1.1,44.9,-9999.0,'1111122,1111122,1111122' 
SCCF RECON,ioos:station:SCCF:53:1,2012-03-01T13:15:00Z,26.6493,-81.8810,2.11,0.3,81.1,-9999.0,'1111122,1111122,1111122' 
SCCF RECON,ioos:station:SCCF:53:1,2012-03-01T13:30:00Z,26.6493,-81.8810,2.11,0.5,51.7,-9999.0,'1111122,1111122,1111122' 
SCCF RECON,ioos:station:SCCF:53:1,2012-03-01T13:45:00Z,26.6493,-81.8810,2.11,0.8,50.3,-9999.0,'1111122,1111122,1111122' 
SCCF RECON,ioos:station:SCCF:53:1,2012-03-01T14:00:00Z,26.6493,-81.8810,2.11,1.0,15.9,-9999.0,'1111122,1111122,1111122' 
SCCF RECON,ioos:station:SCCF:53:1,2012-03-01T14:15:00Z,26.6493,-81.8810,2.11,1.2,26.3,-9999.0,'1111122,1111122,1111122' 
SCCF RECON,ioos:station:SCCF:53:1,2012-03-01T14:30:00Z,26.6493,-81.8810,2.11,1.3,24.1,-9999.0,'1111122,1111122,1111122' 
SCCF RECON,ioos:station:SCCF:53:1,2012-03-01T14:45:00Z,26.6493,-81.8810,2.11,1.6,37.8,-9999.0,'1111122,1111122,1111122' 
SCCF RECON,ioos:station:SCCF:53:1,2012-03-01T15:00:00Z,26.6493,-81.8810,2.11,1.5,155.4,-9999.0,'1111122,1111122,1111122' 
SCCF RECON,ioos:station:SCCF:53:1,2012-03-01T15:15:00Z,26.6493,-81.8810,2.11,2.5,230.2,-9999.0,'1111122,1111122,1111122' 
SCCF RECON,ioos:station:SCCF:53:1,2012-03-01T15:30:00Z,26.6493,-81.8810,2.11,2.8,233.1,-9999.0,'1111122,1111122,1111122' 
SCCF RECON,ioos:station:SCCF:53:1,2012-03-01T15:45:00Z,26.6493,-81.8810,2.11,1.9,240.5,-9999.0,'1111122,1111122,1111122' 
SCCF RECON,ioos:station:SCCF:53:1,2012-03-01T16:00:00Z,26.6493,-81.8810,2.11,3.9,236.1,-9999.0,'1111122,1111122,1111122' 
SCCF RECON,ioos:station:SCCF:53:1,2012-03-01T16:15:00Z,26.6493,-81.8810,2.11,3.9,237.1,-9999.0,'1111122,1111122,1111122' 
SCCF RECON,ioos:station:SCCF:53:1,2012-03-01T16:30:00Z,26.6493,-81.8810,2.11,5.4,229.4,-9999.0,'1111122,1111122,1111122' 
SCCF RECON,ioos:station:SCCF:53:1,2012-03-01T16:45:00Z,26.6493,-81.8810,2.11,4.6,235.7,-9999.0,'1111122,1111122,1111122' 
SCCF RECON,ioos:station:SCCF:53:1,2012-03-01T17:00:00Z,26.6493,-81.8810,2.11,5.8,231.6,-9999.0,'1111122,1111122,1111122' 
SCCF RECON,ioos:station:SCCF:53:1,2012-03-01T17:15:00Z,26.6493,-81.8810,2.11,5.3,228.4,-9999.0,'1111122,1111122,1111122' 
SCCF RECON,ioos:station:SCCF:53:1,2012-03-01T17:30:00Z,26.6493,-81.8810,2.11,6.0,224.3,-9999.0,'1111122,1111122,1111122' 
SCCF RECON,ioos:station:SCCF:53:1,2012-03-01T17:45:00Z,26.6493,-81.8810,2.11,4.8,230.6,-9999.0,'1111122,1111122,1111122' 
SCCF RECON,ioos:station:SCCF:53:1,2012-03-01T18:00:00Z,26.6493,-81.8810,2.11,6.0,231.3,-9999.0,'1111122,1111122,1111122' 
SCCF RECON,ioos:station:SCCF:53:1,2012-03-01T18:15:00Z,26.6493,-81.8810,2.11,6.3,215.8,-9999.0,'1111122,1111122,1111122' 
SCCF RECON,ioos:station:SCCF:53:1,2012-03-01T18:30:00Z,26.6493,-81.8810,2.11,6.8,217.6,-9999.0,'1111122,1111122,1111122' 
SCCF RECON,ioos:station:SCCF:53:1,2012-03-01T18:45:00Z,26.6493,-81.8810,2.11,5.8,231.3,-9999.0,'1111122,1111122,1111122' 
SCCF RECON,ioos:station:SCCF:53:1,2012-03-01T19:00:00Z,26.6493,-81.8810,2.11,6.4,230.9,-9999.0,'1111122,1111122,1111122' 
SCCF RECON,ioos:station:SCCF:53:1,2012-03-01T19:15:00Z,26.6493,-81.8810,2.11,7.2,216.2,-9999.0,'1111122,1111122,1111122' 
SCCF RECON,ioos:station:SCCF:53:1,2012-03-01T19:30:00Z,26.6493,-81.8810,2.11,8.3,222.0,-9999.0,'1111122,1111122,1111122' 
SCCF RECON,ioos:station:SCCF:53:1,2012-03-01T19:45:00Z,26.6493,-81.8810,2.11,7.2,224.0,-9999.0,'1111122,1111122,1111122' 
SCCF RECON,ioos:station:SCCF:53:1,2012-03-01T20:00:00Z,26.6493,-81.8810,2.11,6.7,226.4,-9999.0,'1111122,1111122,1111122' 
SCCF RECON,ioos:station:SCCF:53:1,2012-03-01T20:15:00Z,26.6493,-81.8810,2.11,6.1,234.5,-9999.0,'1111122,1111122,1111122' 
SCCF RECON,ioos:station:SCCF:53:1,2012-03-01T20:30:00Z,26.6493,-81.8810,2.11,6.6,223.1,-9999.0,'1111122,1111122,1111122' 
SCCF RECON,ioos:station:SCCF:53:1,2012-03-01T20:45:00Z,26.6493,-81.8810,2.11,4.5,239.5,-9999.0,'1111122,1111122,1111122' 
SCCF RECON,ioos:station:SCCF:53:1,2012-03-01T21:00:00Z,26.6493,-81.8810,2.11,4.7,232.6,-9999.0,'1111122,1111122,1111122' 
SCCF RECON,ioos:station:SCCF:53:1,2012-03-01T21:15:00Z,26.6493,-81.8810,2.11,5.0,228.3,-9999.0,'1111122,1111122,1111122' 
SCCF RECON,ioos:station:SCCF:53:1,2012-03-01T21:30:00Z,26.6493,-81.8810,2.11,4.3,233.0,-9999.0,'1111122,1111122,1111122' 
SCCF RECON,ioos:station:SCCF:53:1,2012-03-01T21:45:00Z,26.6493,-81.8810,2.11,4.6,240.1,-9999.0,'1111122,1111122,1111122' 
SCCF RECON,ioos:station:SCCF:53:1,2012-03-01T22:00:00Z,26.6493,-81.8810,2.11,5.8,246.6,-9999.0,'1111122,1111122,1111122' 
SCCF RECON,ioos:station:SCCF:53:1,2012-03-01T22:15:00Z,26.6493,-81.8810,2.11,5.1,256.0,-9999.0,'1111122,1111122,1111122' 
SCCF RECON,ioos:station:SCCF:53:1,2012-03-01T22:30:00Z,26.6493,-81.8810,2.11,5.0,257.8,-9999.0,'1111122,1111122,1111122' 
SCCF RECON,ioos:station:SCCF:53:1,2012-03-01T22:45:00Z,26.6493,-81.8810,2.11,5.2,238.0,-9999.0,'1111122,1111122,1111122' 
SCCF RECON,ioos:station:SCCF:53:1,2012-03-01T23:00:00Z,26.6493,-81.8810,2.11,4.9,243.1,-9999.0,'1111122,1111122,1111122' 
SCCF RECON,ioos:station:SCCF:53:1,2012-03-01T23:15:00Z,26.6493,-81.8810,2.11,4.3,259.9,-9999.0,'1111122,1111122,1111122' 
SCCF RECON,ioos:station:SCCF:53:1,2012-03-01T23:30:00Z,26.6493,-81.8810,2.11,4.5,256.3,-9999.0,'1111122,1111122,1111122' 
SCCF RECON,ioos:station:SCCF:53:1,2012-03-01T23:45:00Z,26.6493,-81.8810,2.11,3.2,242.2,-9999.0,'1111122,1111122,1111122' 
SCCF RECON,ioos:station:SCCF:53:1,2012-03-02T00:00:00Z,26.6493,-81.8810,2.11,3.3,270.9,-9999.0,'1111122,1111122,1111122' 
SCCF RECON,ioos:station:SCCF:53:1,2012-03-02T00:15:00Z,26.6493,-81.8810,2.11,2.8,269.9,-9999.0,'1111122,1111122,1111122' 
SCCF RECON,ioos:station:SCCF:53:1,2012-03-02T00:30:00Z,26.6493,-81.8810,2.11,2.5,261.6,-9999.0,'1111122,1111122,1111122' 
SCCF RECON,ioos:station:SCCF:53:1,2012-03-02T00:45:00Z,26.6493,-81.8810,2.11,2.6,244.9,-9999.0,'1111122,1111122,1111122' 
SCCF RECON,ioos:station:SCCF:53:1,2012-03-02T01:00:00Z,26.6493,-81.8810,2.11,1.6,235.1,-9999.0,'1111122,1111122,1111122' 
SCCF RECON,ioos:station:SCCF:53:1,2012-03-02T01:15:00Z,26.6493,-81.8810,2.11,2.0,272.1,-9999.0,'1111122,1111122,1111122' 
SCCF RECON,ioos:station:SCCF:53:1,2012-03-02T01:30:00Z,26.6493,-81.8810,2.11,2.3,235.6,-9999.0,'1111122,1111122,1111122' 
SCCF RECON,ioos:station:SCCF:53:1,2012-03-02T01:45:00Z,26.6493,-81.8810,2.11,1.1,240.2,-9999.0,'1111122,1111122,1111122' 
SCCF RECON,ioos:station:SCCF:53:1,2012-03-02T02:00:00Z,26.6493,-81.8810,2.11,0.6,306.1,-9999.0,'1111122,1111122,1111122' 
SCCF RECON,ioos:station:SCCF:53:1,2012-03-02T02:15:00Z,26.6493,-81.8810,2.11,1.3,2.6,-9999.0,'1111122,1111122,1111122' 
SCCF RECON,ioos:station:SCCF:53:1,2012-03-02T02:30:00Z,26.6493,-81.8810,2.11,0.8,13.4,-9999.0,'1111122,1111122,1111122' 
SCCF RECON,ioos:station:SCCF:53:1,2012-03-02T02:45:00Z,26.6493,-81.8810,2.11,1.6,340.1,-9999.0,'1111122,1111122,1111122' 
SCCF RECON,ioos:station:SCCF:53:1,2012-03-02T03:00:00Z,26.6493,-81.8810,2.11,1.2,290.3,-9999.0,'1111122,1111122,1111122' 
SCCF RECON,ioos:station:SCCF:53:1,2012-03-02T03:15:00Z,26.6493,-81.8810,2.11,-9999.0,224.9,-9999.0,'1111122,1111122,1111122' 
SCCF RECON,ioos:station:SCCF:53:1,2012-03-02T03:30:00Z,26.6493,-81.8810,2.11,1.6,151.0,-9999.0,'1111122,1111122,1111122' 
SCCF RECON,ioos:station:SCCF:53:1,2012-03-02T03:45:00Z,26.6493,-81.8810,2.11,1.8,152.8,-9999.0,'1111122,1111122,1111122' 
SCCF RECON,ioos:station:SCCF:53:1,2012-03-02T04:00:00Z,26.6493,-81.8810,2.11,1.7,140.2,-9999.0,'1111122,1111122,1111122' 
SCCF RECON,ioos:station:SCCF:53:1,2012-03-02T04:15:00Z,26.6493,-81.8810,2.11,2.0,147.5,-9999.0,'1111122,1111122,1111122' 
SCCF RECON,ioos:station:SCCF:53:1,2012-03-02T04:30:00Z,26.6493,-81.8810,2.11,1.3,155.8,-9999.0,'1111122,1111122,1111122' 
SCCF RECON,ioos:station:SCCF:53:1,2012-03-02T04:45:00Z,26.6493,-81.8810,2.11,1.7,140.1,-9999.0,'1111122,1111122,1111122' 
SCCF RECON,ioos:station:SCCF:53:1,2012-03-02T05:00:00Z,26.6493,-81.8810,2.11,1.8,137.2,-9999.0,'1111122,1111122,1111122' 
SCCF RECON,ioos:station:SCCF:53:1,2012-03-02T05:15:00Z,26.6493,-81.8810,2.11,2.0,144.0,-9999.0,'1111122,1111122,1111122' 
SCCF RECON,ioos:station:SCCF:53:1,2012-03-02T05:30:00Z,26.6493,-81.8810,2.11,2.1,137.0,-9999.0,'1111122,1111122,1111122' 
SCCF RECON,ioos:station:SCCF:53:1,2012-03-02T05:45:00Z,26.6493,-81.8810,2.11,1.4,152.8,-9999.0,'1111122,1111122,1111122' 
SCCF RECON,ioos:station:SCCF:53:1,2012-03-02T06:00:00Z,26.6493,-81.8810,2.11,2.0,141.6,-9999.0,'1111122,1111122,1111122' 
SCCF RECON,ioos:station:SCCF:53:1,2012-03-02T06:15:00Z,26.6493,-81.8810,2.11,1.2,161.8,-9999.0,'1111122,1111122,1111122' 
SCCF RECON,ioos:station:SCCF:53:1,2012-03-02T06:30:00Z,26.6493,-81.8810,2.11,2.1,141.0,-9999.0,'1111122,1111122,1111122' 
SCCF RECON,ioos:station:SCCF:53:1,2012-03-02T06:45:00Z,26.6493,-81.8810,2.11,1.8,146.8,-9999.0,'1111122,1111122,1111122' 
SCCF RECON,ioos:station:SCCF:53:1,2012-03-02T07:00:00Z,26.6493,-81.8810,2.11,1.8,146.2,-9999.0,'1111122,1111122,1111122' 
SCCF RECON,ioos:station:SCCF:53:1,2012-03-02T07:15:00Z,26.6493,-81.8810,2.11,1.7,147.7,-9999.0,'1111122,1111122,1111122' 
SCCF RECON,ioos:station:SCCF:53:1,2012-03-02T07:30:00Z,26.6493,-81.8810,2.11,2.1,144.8,-9999.0,'1111122,1111122,1111122' 
SCCF RECON,ioos:station:SCCF:53:1,2012-03-02T07:45:00Z,26.6493,-81.8810,2.11,2.1,139.0,-9999.0,'1111122,1111122,1111122' 
SCCF RECON,ioos:station:SCCF:53:1,2012-03-02T08:00:00Z,26.6493,-81.8810,2.11,2.2,144.1,-9999.0,'1111122,1111122,1111122' 
SCCF RECON,ioos:station:SCCF:53:1,2012-03-02T08:15:00Z,26.6493,-81.8810,2.11,2.3,144.0,-9999.0,'1111122,1111122,1111122' 
SCCF RECON,ioos:station:SCCF:53:1,2012-03-02T08:30:00Z,26.6493,-81.8810,2.11,2.3,138.3,-9999.0,'1111122,1111122,1111122' 
SCCF RECON,ioos:station:SCCF:53:1,2012-03-02T08:45:00Z,26.6493,-81.8810,2.11,2.1,143.0,-9999.0,'1111122,1111122,1111122' 
SCCF RECON,ioos:station:SCCF:53:1,2012-03-02T09:00:00Z,26.6493,-81.8810,2.11,1.6,142.8,-9999.0,'1111122,1111122,1111122' 
SCCF RECON,ioos:station:SCCF:53:1,2012-03-02T09:15:00Z,26.6493,-81.8810,2.11,2.4,142.0,-9999.0,'1111122,1111122,1111122' 
SCCF RECON,ioos:station:SCCF:53:1,2012-03-02T09:30:00Z,26.6493,-81.8810,2.11,1.7,152.8,-9999.0,'1111122,1111122,1111122' 
SCCF RECON,ioos:station:SCCF:53:1,2012-03-02T09:45:00Z,26.6493,-81.8810,2.11,3.4,128.6,-9999.0,'1111122,1111122,1111122' 
SCCF RECON,ioos:station:SCCF:53:1,2012-03-02T10:00:00Z,26.6493,-81.8810,2.11,2.6,121.0,-9999.0,'1111122,1111122,1111122' 
SCCF RECON,ioos:station:SCCF:53:1,2012-03-02T10:15:00Z,26.6493,-81.8810,2.11,3.5,138.6,-9999.0,'1111122,1111122,1111122' 
SCCF RECON,ioos:station:SCCF:53:1,2012-03-02T10:30:00Z,26.6493,-81.8810,2.11,1.7,134.9,-9999.0,'1111122,1111122,1111122' 
SCCF RECON,ioos:station:SCCF:53:1,2012-03-02T10:45:00Z,26.6493,-81.8810,2.11,1.2,134.9,-9999.0,'1111122,1111122,1111122' 
SCCF RECON,ioos:station:SCCF:53:1,2012-03-02T11:00:00Z,26.6493,-81.8810,2.11,3.4,143.6,-9999.0,'1111122,1111122,1111122' 
SCCF RECON,ioos:station:SCCF:53:1,2012-03-02T11:15:00Z,26.6493,-81.8810,2.11,2.7,116.1,-9999.0,'1111122,1111122,1111122' 
SCCF RECON,ioos:station:SCCF:53:1,2012-03-02T11:30:00Z,26.6493,-81.8810,2.11,2.9,139.4,-9999.0,'1111122,1111122,1111122' 
SCCF RECON,ioos:station:SCCF:53:1,2012-03-02T11:45:00Z,26.6493,-81.8810,2.11,2.5,142.9,-9999.0,'1111122,1111122,1111122' 
SCCF RECON,ioos:station:SCCF:53:1,2012-03-02T12:00:00Z,26.6493,-81.8810,2.11,3.1,126.1,-9999.0,'1111122,1111122,1111122' 
SCCF RECON,ioos:station:SCCF:53:1,2012-03-02T12:15:00Z,26.6493,-81.8810,2.11,2.5,131.5,-9999.0,'1111122,1111122,1111122' 
SCCF RECON,ioos:station:SCCF:53:1,2012-03-02T12:30:00Z,26.6493,-81.8810,2.11,3.4,127.6,-9999.0,'1111122,1111122,1111122' 
SCCF RECON,ioos:station:SCCF:53:1,2012-03-02T12:45:00Z,26.6493,-81.8810,2.11,2.6,141.1,-9999.0,'1111122,1111122,1111122' 
SCCF RECON,ioos:station:SCCF:53:1,2012-03-02T13:00:00Z,26.6493,-81.8810,2.11,3.2,141.0,-9999.0,'1111122,1111122,1111122' 
SCCF RECON,ioos:station:SCCF:53:1,2012-03-02T13:15:00Z,26.6493,-81.8810,2.11,2.1,131.0,-9999.0,'1111122,1111122,1111122' 
SCCF RECON,ioos:station:SCCF:53:1,2012-03-02T13:30:00Z,26.6493,-81.8810,2.11,3.6,144.2,-9999.0,'1111122,1111122,1111122' 
SCCF RECON,ioos:station:SCCF:53:1,2012-03-02T13:45:00Z,26.6493,-81.8810,2.11,3.6,152.8,-9999.0,'1111122,1111122,1111122' 
SCCF RECON,ioos:station:SCCF:53:1,2012-03-02T14:00:00Z,26.6493,-81.8810,2.11,3.3,163.8,-9999.0,'1111122,1111122,1111122' 
SCCF RECON,ioos:station:SCCF:53:1,2012-03-02T14:15:00Z,26.6493,-81.8810,2.11,2.6,178.6,-9999.0,'1111122,1111122,1111122' 
SCCF RECON,ioos:station:SCCF:53:1,2012-03-02T14:30:00Z,26.6493,-81.8810,2.11,2.0,151.5,-9999.0,'1111122,1111122,1111122' 
SCCF RECON,ioos:station:SCCF:53:1,2012-03-02T14:45:00Z,26.6493,-81.8810,2.11,2.1,161.7,-9999.0,'1111122,1111122,1111122' 
SCCF RECON,ioos:station:SCCF:53:1,2012-03-02T15:00:00Z,26.6493,-81.8810,2.11,4.1,198.0,-9999.0,'1111122,1111122,1111122' 
SCCF RECON,ioos:station:SCCF:53:1,2012-03-02T15:15:00Z,26.6493,-81.8810,2.11,2.6,182.3,-9999.0,'1111122,1111122,1111122' 
SCCF RECON,ioos:station:SCCF:53:1,2012-03-02T15:30:00Z,26.6493,-81.8810,2.11,3.7,188.5,-9999.0,'1111122,1111122,1111122' 
SCCF RECON,ioos:station:SCCF:53:1,2012-03-02T15:45:00Z,26.6493,-81.8810,2.11,6.2,216.0,-9999.0,'1111122,1111122,1111122' 
SCCF RECON,ioos:station:SCCF:53:1,2012-03-02T16:00:00Z,26.6493,-81.8810,2.11,4.9,210.2,-9999.0,'1111122,1111122,1111122' 
SCCF RECON,ioos:station:SCCF:53:1,2012-03-02T16:15:00Z,26.6493,-81.8810,2.11,7.8,212.1,-9999.0,'1111122,1111122,1111122' 
SCCF RECON,ioos:station:SCCF:53:1,2012-03-02T16:30:00Z,26.6493,-81.8810,2.11,5.4,200.9,-9999.0,'1111122,1111122,1111122' 
SCCF RECON,ioos:station:SCCF:53:1,2012-03-02T16:45:00Z,26.6493,-81.8810,2.11,4.5,194.6,-9999.0,'1111122,1111122,1111122' 
SCCF RECON,ioos:station:SCCF:53:1,2012-03-02T17:00:00Z,26.6493,-81.8810,2.11,7.2,198.2,-9999.0,'1111122,1111122,1111122' 
SCCF RECON,ioos:station:SCCF:53:1,2012-03-02T17:15:00Z,26.6493,-81.8810,2.11,6.6,213.4,-9999.0,'1111122,1111122,1111122' 
SCCF RECON,ioos:station:SCCF:53:1,2012-03-02T17:30:00Z,26.6493,-81.8810,2.11,7.4,221.1,-9999.0,'1111122,1111122,1111122' 
SCCF RECON,ioos:station:SCCF:53:1,2012-03-02T17:45:00Z,26.6493,-81.8810,2.11,7.2,206.7,-9999.0,'1111122,1111122,1111122' 
SCCF RECON,ioos:station:SCCF:53:1,2012-03-02T18:00:00Z,26.6493,-81.8810,2.11,6.8,217.8,-9999.0,'1111122,1111122,1111122' 
SCCF RECON,ioos:station:SCCF:53:1,2012-03-02T18:15:00Z,26.6493,-81.8810,2.11,5.9,215.8,-9999.0,'1111122,1111122,1111122' 
SCCF RECON,ioos:station:SCCF:53:1,2012-03-02T18:30:00Z,26.6493,-81.8810,2.11,4.5,209.7,-9999.0,'1111122,1111122,1111122' 
SCCF RECON,ioos:station:SCCF:53:1,2012-03-02T18:45:00Z,26.6493,-81.8810,2.11,8.0,213.9,-9999.0,'1111122,1111122,1111122' 
SCCF RECON,ioos:station:SCCF:53:1,2012-03-02T19:00:00Z,26.6493,-81.8810,2.11,8.1,217.3,-9999.0,'1111122,1111122,1111122' 
SCCF RECON,ioos:station:SCCF:53:1,2012-03-02T19:15:00Z,26.6493,-81.8810,2.11,8.3,211.9,-9999.0,'1111122,1111122,1111122' 
SCCF RECON,ioos:station:SCCF:53:1,2012-03-02T19:30:00Z,26.6493,-81.8810,2.11,7.0,210.8,-9999.0,'1111122,1111122,1111122' 
SCCF RECON,ioos:station:SCCF:53:1,2012-03-02T19:45:00Z,26.6493,-81.8810,2.11,8.2,215.4,-9999.0,'1111122,1111122,1111122' 
SCCF RECON,ioos:station:SCCF:53:1,2012-03-02T20:00:00Z,26.6493,-81.8810,2.11,8.1,211.8,-9999.0,'1111122,1111122,1111122' 
SCCF RECON,ioos:station:SCCF:53:1,2012-03-02T20:15:00Z,26.6493,-81.8810,2.11,8.1,211.5,-9999.0,'1111122,1111122,1111122' 
SCCF RECON,ioos:station:SCCF:53:1,2012-03-02T20:30:00Z,26.6493,-81.8810,2.11,7.1,215.8,-9999.0,'1111122,1111122,1111122' 
SCCF RECON,ioos:station:SCCF:53:1,2012-03-02T20:45:00Z,26.6493,-81.8810,2.11,8.3,215.4,-9999.0,'1111122,1111122,1111122' 
SCCF RECON,ioos:station:SCCF:53:1,2012-03-02T21:00:00Z,26.6493,-81.8810,2.11,8.2,218.2,-9999.0,'1111122,1111122,1111122' 
SCCF RECON,ioos:station:SCCF:53:1,2012-03-02T21:15:00Z,26.6493,-81.8810,2.11,7.5,217.5,-9999.0,'1111122,1111122,1111122' 
SCCF RECON,ioos:station:SCCF:53:1,2012-03-02T21:30:00Z,26.6493,-81.8810,2.11,7.7,211.8,-9999.0,'1111122,1111122,1111122' 
SCCF RECON,ioos:station:SCCF:53:1,2012-03-02T21:45:00Z,26.6493,-81.8810,2.11,6.5,211.8,-9999.0,'1111122,1111122,1111122' 
SCCF RECON,ioos:station:SCCF:53:1,2012-03-02T22:00:00Z,26.6493,-81.8810,2.11,7.5,209.2,-9999.0,'1111122,1111122,1111122' 
SCCF RECON,ioos:station:SCCF:53:1,2012-03-02T22:15:00Z,26.6493,-81.8810,2.11,7.1,205.8,-9999.0,'1111122,1111122,1111122' 
SCCF RECON,ioos:station:SCCF:53:1,2012-03-02T22:30:00Z,26.6493,-81.8810,2.11,7.1,208.1,-9999.0,'1111122,1111122,1111122' 
SCCF RECON,ioos:station:SCCF:53:1,2012-03-02T22:45:00Z,26.6493,-81.8810,2.11,8.3,213.2,-9999.0,'1111122,1111122,1111122' 
SCCF RECON,ioos:station:SCCF:53:1,2012-03-02T23:00:00Z,26.6493,-81.8810,2.11,6.0,209.1,-9999.0,'1111122,1111122,1111122' 
SCCF RECON,ioos:station:SCCF:53:1,2012-03-02T23:15:00Z,26.6493,-81.8810,2.11,4.8,209.7,-9999.0,'1111122,1111122,1111122' 
SCCF RECON,ioos:station:SCCF:53:1,2012-03-02T23:30:00Z,26.6493,-81.8810,2.11,4.8,205.4,-9999.0,'1111122,1111122,1111122' 
SCCF RECON,ioos:station:SCCF:53:1,2012-03-02T23:45:00Z,26.6493,-81.8810,2.11,3.4,203.9,-9999.0,'1111122,1111122,1111122' 
SCCF RECON,ioos:station:SCCF:53:1,2012-03-03T00:00:00Z,26.6493,-81.8810,2.11,5.2,206.1,-9999.0,'1111122,1111122,1111122' 
SCCF RECON,ioos:station:SCCF:53:1,2012-03-03T00:15:00Z,26.6493,-81.8810,2.11,4.3,202.8,-9999.0,'1111122,1111122,1111122' 
SCCF RECON,ioos:station:SCCF:53:1,2012-03-03T00:30:00Z,26.6493,-81.8810,2.11,2.9,185.3,-9999.0,'1111122,1111122,1111122' 
SCCF RECON,ioos:station:SCCF:53:1,2012-03-03T00:45:00Z,26.6493,-81.8810,2.11,3.5,196.9,-9999.0,'1111122,1111122,1111122' 